Wind_Speed
28 29 29 30 31 31 31 30 30 29 30 30 29 28 26 25 23 22 24 26 28 30 31 30 28 27 25 24 23 22 21 20 19 19 18 17 17 16 15 14 12 11 9
29 29 31 32 33 33 32 32 32 31 30 30 30 30 28 27 26 24 24 25 26 29 32 32 32 31 29 27 26 25 24 23 21 21 20 19 19 18 17 16 14 13 12
31 31 32 33 33 33 33 33 32 32 31 31 31 30 29 29 27 26 26 26 27 28 31 34 34 33 32 30 29 28 27 26 24 23 22 21 21 20 19 18 17 15 14
32 32 33 33 33 33 33 33 33 33 33 32 31 31 31 30 28 28 28 28 28 29 30 33 36 36 35 33 32 31 30 29 28 26 25 23 23 23 22 21 20 18 17
32 33 33 33 34 34 34 34 34 33 33 33 32 32 31 31 30 30 29 30 29 29 30 33 36 38 37 36 34 33 32 31 30 29 27 26 25 24 24 23 22 22 20
31 32 33 34 34 34 34 34 34 33 33 33 33 32 32 32 32 32 31 31 31 30 31 34 36 37 38 37 36 35 34 33 32 31 29 28 27 26 25 24 24 24 23
31 32 32 33 33 34 34 34 34 33 33 33 33 33 32 32 33 32 32 32 32 32 32 34 36 38 39 38 37 36 35 34 33 32 31 29 29 28 27 26 26 26 26
31 31 32 32 32 33 33 33 32 33 33 33 33 33 33 33 33 33 32 32 32 32 33 34 36 37 38 39 38 38 36 36 35 34 33 31 31 30 29 27 27 28 27
30 30 30 31 31 31 32 32 32 32 32 33 33 33 33 33 33 33 32 32 32 32 33 35 37 39 39 39 39 39 38 37 36 36 35 33 32 31 31 30 29 29 28
29 29 29 30 31 32 32 32 32 32 32 33 33 33 33 32 33 33 33 33 33 33 33 35 36 39 40 40 40 40 39 38 37 36 36 35 34 33 32 31 31 30 30
30 30 30 31 31 32 33 33 34 33 33 33 33 33 33 33 33 33 33 34 33 33 34 35 36 38 40 41 42 41 40 40 39 38 38 37 36 34 33 32 31 30 30
31 31 31 32 32 33 34 35 35 35 35 34 34 34 34 34 33 33 33 33 33 34 35 36 37 38 40 42 42 42 42 41 40 40 39 39 38 36 34 33 32 31 30
32 32 33 34 34 35 36 36 36 37 37 37 36 36 36 35 35 34 33 33 33 34 35 37 38 39 40 41 43 43 44 43 42 41 40 40 39 38 36 35 33 32 30
33 34 35 36 36 37 37 37 37 38 38 39 39 38 37 37 36 36 35 34 34 35 35 37 39 40 42 42 42 43 44 43 42 42 42 41 40 38 37 35 33 32 31
36 36 37 38 38 38 38 37 37 37 38 39 40 40 39 39 38 37 37 36 35 35 36 37 39 39 41 41 41 43 43 43 42 42 42 42 40 39 37 35 34 32 31
38 38 38 38 38 38 38 37 37 37 38 38 39 40 41 41 40 39 39 38 37 37 37 38 40 40 41 42 42 43 44 43 43 44 43 42 41 40 37 36 34 33 31
40 40 40 39 38 38 38 37 37 37 37 37 38 39 41 42 42 41 41 40 39 38 38 39 41 42 41 42 42 43 44 45 45 45 44 43 42 39 37 36 34 33 31
42 41 41 40 39 38 38 37 37 36 36 36 37 38 40 42 43 44 43 43 42 41 40 39 41 43 43 43 43 43 44 46 46 45 44 44 42 40 38 37 36 34 32
43 43 42 41 40 39 38 37 36 35 35 35 36 37 38 41 42 44 45 46 46 45 43 41 41 42 44 44 44 44 45 46 46 46 45 44 43 41 39 38 36 35 33
44 44 43 42 40 38 37 36 35 35 35 36 36 37 39 40 42 44 46 47 48 48 47 46 44 44 44 46 45 45 45 46 47 47 47 45 44 42 41 40 38 36 34
45 45 43 42 40 38 36 36 35 35 35 36 37 38 40 41 43 45 46 48 49 50 50 49 48 46 45 47 46 46 47 47 48 49 48 47 46 45 44 41 39 37 35
46 45 43 41 39 38 37 36 35 35 36 36 38 39 40 41 43 46 47 49 51 52 53 53 52 51 48 48 48 48 48 49 48 49 49 49 48 47 45 43 41 39 36
45 44 42 40 39 38 38 37 37 36 36 36 37 39 40 41 43 45 47 50 52 53 55 56 55 54 52 51 50 50 49 49 50 50 51 51 50 48 47 45 43 40 37
45 43 42 40 39 39 39 38 37 36 35 36 36 37 39 40 42 44 46 49 51 54 56 57 57 57 57 55 52 51 50 50 50 51 52 52 51 50 49 47 44 41 39
44 43 42 41 39 39 38 36 36 35 35 35 36 37 38 39 41 44 45 47 50 53 57 59 60 60 60 58 56 54 52 50 50 51 52 53 52 51 50 49 47 44 41
44 43 42 40 39 38 37 35 34 33 32 33 34 35 36 37 39 42 44 47 49 52 56 59 61 62 62 60 59 57 54 51 51 52 52 53 53 53 52 50 48 46 43
Wind_Direction
283 284 284 285 286 286 284 284 284 284 282 281 280 279 278 277 274 268 260 254 246 240 236 233 230 228 226 225 223 221 219 218 218 218 220 222 222 222 223 224 225 226 226
287 285 283 284 284 283 282 282 280 280 280 277 276 276 275 275 272 268 262 257 250 243 238 234 231 229 228 226 225 223 221 221 221 220 221 223 225 225 225 226 228 228 228
288 286 285 284 283 282 281 281 279 278 277 275 274 272 272 271 271 268 263 259 254 245 240 237 233 230 228 227 226 225 224 223 223 223 223 224 225 226 226 226 228 229 229
289 287 286 284 283 282 281 280 278 276 274 272 272 271 269 268 267 265 263 259 255 249 242 237 233 229 228 228 226 225 225 225 226 225 225 225 225 227 228 228 228 229 229
291 289 287 285 284 283 281 279 278 276 273 271 269 269 267 266 265 262 261 258 255 251 243 237 232 228 227 227 227 226 226 227 227 227 226 226 226 226 228 229 229 229 229
293 290 288 287 285 284 282 280 278 276 273 271 269 267 265 264 263 261 259 256 253 248 244 237 231 228 226 226 226 226 227 228 228 228 228 227 226 226 228 230 230 230 230
295 292 290 288 286 285 283 281 279 277 273 271 269 266 264 263 261 259 257 254 250 246 242 236 231 229 227 226 224 224 225 226 226 228 229 229 228 227 228 230 230 230 231
297 294 292 290 288 286 283 281 279 277 274 271 268 266 263 261 260 259 256 252 248 245 240 235 229 227 226 225 225 224 225 225 226 227 228 229 229 228 229 230 232 232 232
297 294 292 290 289 287 285 282 280 277 275 273 269 266 263 260 260 258 255 251 247 244 239 234 230 226 225 225 225 224 225 225 225 226 227 229 229 229 230 231 232 233 233
300 298 294 291 289 288 286 284 281 278 275 273 270 267 264 260 258 256 255 251 246 242 238 234 230 226 224 225 224 223 224 223 224 225 226 228 229 230 231 233 233 235 235
304 302 300 296 293 290 287 285 282 279 275 272 269 266 263 260 257 255 253 250 246 241 235 232 229 227 225 225 225 223 223 223 225 226 226 227 228 229 230 232 234 235 236
308 306 303 299 296 292 288 285 281 277 274 270 267 264 262 259 257 254 251 248 246 241 235 231 229 226 225 226 225 224 223 223 224 224 225 226 228 229 230 231 233 234 235
312 310 307 303 299 294 289 285 281 276 272 268 265 262 259 257 254 253 250 246 243 240 236 231 228 226 225 226 226 225 224 224 223 224 225 226 227 228 229 230 231 232 233
315 312 308 305 301 297 292 286 280 275 271 266 262 259 256 253 251 250 248 245 240 237 234 230 228 225 224 224 224 224 223 223 223 224 224 225 226 227 228 229 229 229 231
318 315 311 307 303 298 293 288 282 276 271 266 261 257 253 250 248 246 245 243 240 236 233 230 228 225 223 223 223 223 222 222 223 223 223 223 224 225 226 227 227 227 229
321 317 313 308 304 299 294 289 283 278 272 267 261 256 252 249 247 244 242 241 239 236 234 232 230 228 224 221 221 221 221 221 221 221 220 221 222 223 223 224 224 225 225
322 319 314 310 304 299 295 290 285 280 274 268 262 257 253 249 246 244 241 240 238 236 234 233 232 229 226 222 220 220 220 219 219 218 219 219 219 220 220 222 221 221 221
323 320 316 311 306 301 296 291 286 281 275 269 263 257 252 250 247 244 241 239 237 236 234 233 233 230 228 225 221 219 219 217 218 217 217 217 218 218 219 219 219 218 220
324 321 317 313 308 302 297 292 287 281 275 270 264 259 253 250 247 245 242 240 238 236 234 232 231 230 228 224 223 220 218 217 216 216 215 216 217 217 217 217 216 217 218
324 322 319 315 310 304 299 294 289 283 277 271 266 261 256 252 249 246 243 240 238 236 234 232 230 229 228 226 224 222 219 217 215 215 214 215 215 216 216 215 214 216 217
325 322 319 316 312 307 301 296 291 285 279 274 269 264 259 255 251 247 244 241 238 236 234 232 230 229 227 226 225 223 219 217 216 215 214 214 215 215 214 213 213 214 215
324 322 319 317 313 308 304 298 293 287 282 276 271 267 262 257 252 248 245 241 239 236 233 231 230 229 227 225 224 221 219 218 217 215 214 214 215 214 213 212 212 212 213
325 323 320 317 314 310 306 301 296 291 285 279 274 269 264 259 254 249 245 242 238 235 233 231 229 229 227 225 223 220 218 219 217 216 215 214 214 213 213 212 211 212 212
325 323 321 318 315 312 309 304 299 294 289 282 277 272 267 262 257 251 246 242 239 235 232 230 228 228 226 224 222 220 218 217 217 217 216 214 213 213 212 211 211 212 212
326 324 322 320 317 315 312 308 302 298 292 287 281 276 270 265 259 253 247 242 238 235 232 229 227 226 225 224 222 220 217 218 217 216 216 214 213 212 212 211 211 212 212
327 326 324 322 320 318 315 312 307 302 297 291 285 279 273 267 260 255 249 243 238 234 231 229 226 225 224 223 221 220 217 217 217 216 215 214 214 213 212 212 212 212 212
Height
5858 5857 5857 5856 5855 5854 5853 5853 5853 5852 5852 5852 5852 5852 5853 5854 5855 5856 5858 5859 5862 5865 5868 5871 5874 5877 5880 5883 5886 5889 5891 5894 5897 5899 5902 5905 5907 5909 5911 5913 5915 5916 5918
5852 5851 5850 5849 5848 5847 5846 5846 5846 5845 5845 5845 5845 5846 5846 5847 5849 5850 5851 5853 5855 5858 5861 5865 5868 5871 5874 5878 5881 5884 5887 5890 5893 5896 5898 5901 5904 5906 5909 5911 5913 5915 5916
5845 5844 5843 5841 5840 5839 5838 5838 5838 5838 5838 5837 5838 5838 5839 5840 5841 5843 5844 5846 5848 5850 5854 5857 5861 5865 5868 5872 5875 5879 5882 5885 5888 5891 5894 5897 5900 5903 5905 5908 5910 5912 5914
5837 5836 5834 5833 5832 5831 5830 5830 5829 5829 5829 5829 5830 5831 5832 5833 5834 5835 5837 5838 5840 5842 5845 5849 5853 5857 5861 5865 5868 5873 5877 5880 5883 5886 5890 5893 5896 5899 5902 5904 5907 5910 5912
5829 5827 5826 5825 5823 5822 5822 5821 5821 5821 5821 5821 5822 5823 5824 5825 5826 5827 5829 5830 5832 5834 5837 5840 5844 5848 5853 5857 5862 5866 5870 5874 5878 5881 5884 5888 5891 5894 5897 5900 5903 5906 5909
5821 5819 5818 5816 5815 5814 5813 5812 5812 5812 5812 5812 5813 5814 5815 5816 5817 5819 5820 5822 5823 5826 5828 5832 5836 5840 5845 5850 5854 5859 5863 5867 5872 5875 5879 5882 5886 5889 5893 5896 5899 5902 5905
5814 5811 5810 5808 5806 5805 5804 5803 5803 5803 5803 5803 5804 5805 5807 5807 5809 5810 5811 5813 5815 5817 5820 5823 5827 5832 5837 5842 5847 5852 5856 5860 5865 5869 5873 5877 5880 5884 5887 5891 5894 5897 5900
5806 5804 5802 5800 5798 5796 5795 5794 5794 5794 5793 5794 5795 5796 5797 5799 5800 5801 5802 5804 5806 5808 5812 5815 5819 5824 5829 5834 5839 5844 5848 5853 5857 5862 5867 5871 5875 5878 5882 5885 5889 5892 5895
5798 5796 5794 5792 5790 5788 5787 5786 5785 5785 5785 5785 5785 5786 5788 5789 5791 5792 5793 5795 5797 5800 5803 5806 5810 5815 5820 5826 5831 5836 5841 5846 5850 5855 5860 5864 5868 5872 5876 5880 5883 5887 5890
5790 5788 5786 5784 5781 5780 5778 5777 5776 5776 5776 5775 5776 5776 5778 5779 5781 5783 5784 5786 5788 5791 5794 5797 5802 5807 5812 5817 5823 5828 5833 5838 5843 5848 5853 5857 5862 5866 5870 5874 5878 5881 5884
5783 5780 5778 5775 5773 5771 5769 5768 5767 5766 5766 5766 5766 5767 5768 5769 5771 5773 5775 5777 5779 5782 5785 5789 5793 5798 5803 5809 5815 5820 5825 5830 5836 5841 5845 5850 5855 5859 5864 5868 5872 5875 5879
5775 5772 5769 5766 5764 5762 5760 5758 5757 5756 5756 5756 5756 5757 5758 5760 5761 5763 5766 5768 5770 5773 5776 5780 5785 5790 5795 5800 5806 5811 5817 5822 5828 5833 5838 5843 5848 5853 5857 5862 5866 5869 5873
5767 5763 5760 5757 5754 5752 5750 5748 5746 5746 5745 5745 5746 5747 5748 5749 5751 5753 5756 5758 5761 5764 5767 5772 5776 5781 5786 5791 5797 5802 5808 5814 5820 5825 5831 5836 5841 5846 5850 5855 5859 5863 5867
5759 5755 5751 5747 5744 5741 5739 5737 5735 5734 5734 5734 5734 5735 5737 5739 5741 5743 5746 5749 5752 5755 5759 5763 5767 5772 5777 5782 5787 5793 5799 5805 5811 5817 5823 5828 5834 5839 5844 5848 5853 5857 5861
5750 5746 5741 5737 5733 5730 5727 5725 5723 5722 5722 5722 5722 5724 5726 5728 5730 5733 5736 5739 5743 5746 5750 5754 5758 5762 5767 5773 5778 5784 5790 5796 5803 5809 5815 5821 5826 5832 5837 5842 5846 5851 5855
5742 5737 5732 5727 5722 5719 5715 5713 5711 5710 5710 5710 5710 5712 5714 5716 5719 5722 5725 5729 5733 5737 5741 5745 5748 5753 5758 5763 5769 5775 5781 5787 5794 5800 5807 5813 5819 5824 5830 5835 5840 5845 5849
5733 5727 5722 5717 5712 5708 5704 5701 5699 5698 5697 5697 5698 5699 5701 5704 5707 5710 5714 5718 5722 5727 5732 5735 5739 5743 5748 5754 5759 5766 5772 5779 5785 5792 5798 5805 5811 5817 5823 5828 5833 5838 5843
5723 5717 5712 5706 5701 5697 5693 5690 5687 5685 5685 5685 5685 5687 5689 5691 5695 5698 5702 5707 5711 5716 5721 5726 5729 5734 5739 5744 5750 5756 5763 5769 5776 5783 5790 5797 5803 5810 5816 5822 5827 5833 5837
5713 5707 5701 5696 5690 5685 5681 5678 5676 5674 5673 5672 5673 5674 5676 5678 5681 5685 5689 5694 5699 5704 5710 5715 5719 5724 5729 5735 5741 5747 5753 5760 5767 5774 5781 5788 5796 5802 5809 5815 5821 5827 5832
5704 5697 5691 5685 5679 5674 5670 5666 5664 5662 5660 5660 5660 5661 5663 5665 5668 5671 5676 5680 5685 5691 5697 5703 5708 5713 5719 5725 5731 5737 5744 5751 5758 5765 5773 5780 5787 5794 5801 5808 5814 5820 5825
5694 5687 5680 5674 5668 5663 5658 5655 5652 5650 5648 5647 5647 5647 5649 5651 5654 5657 5661 5666 5671 5677 5684 5690 5697 5702 5708 5715 5721 5727 5734 5741 5748 5756 5764 5772 5779 5787 5794 5801 5808 5814 5819
5684 5677 5670 5663 5657 5652 5647 5643 5640 5637 5635 5634 5633 5632 5633 5636 5638 5642 5646 5651 5656 5663 5670 5677 5684 5690 5697 5704 5710 5717 5724 5732 5740 5748 5755 5763 5771 5778 5786 5794 5800 5807 5813
5674 5667 5659 5653 5647 5641 5636 5631 5627 5624 5622 5620 5618 5617 5618 5620 5622 5625 5629 5634 5640 5647 5654 5662 5670 5677 5684 5692 5700 5707 5714 5722 5730 5738 5745 5753 5762 5770 5779 5786 5793 5800 5807
5665 5657 5649 5642 5636 5630 5624 5619 5614 5611 5608 5606 5604 5603 5603 5604 5606 5609 5613 5618 5624 5631 5638 5647 5655 5663 5670 5678 5687 5695 5703 5711 5719 5727 5735 5744 5753 5762 5770 5778 5786 5793 5800
5655 5647 5639 5632 5625 5619 5612 5607 5602 5598 5595 5592 5590 5588 5588 5588 5589 5592 5596 5602 5608 5614 5620 5629 5638 5647 5656 5665 5675 5683 5692 5700 5708 5717 5726 5735 5744 5753 5761 5770 5778 5786 5793
5645 5637 5630 5622 5615 5609 5602 5596 5591 5586 5583 5579 5576 5574 5572 5572 5573 5575 5579 5584 5591 5597 5603 5612 5621 5631 5641 5651 5662 5671 5681 5690 5698 5707 5716 5726 5735 5744 5753 5762 5770 5778 5786